Visibility
15.0 15.0 15.0 15.0 15.0 15.0 15.0 15.0 15.0 15.0 15.0 5.0 8.2 15.0 14.2 4.1 15.0 15.0 15.0 0.1 13.8 1.0 15.0 15.0 15.0 15.0 14.9 15.0 15.0 15.0 15.0 15.0 15.0 15.0 15.0 15.0 15.0 15.0
15.0 15.0 15.0 15.0 15.0 15.0 15.0 15.0 11.2 14.5 15.0 15.0 15.0 15.0 9.0 14.7 15.0 15.0 15.0 0.2 0.1 2.1 12.8 15.0 15.0 15.0 15.0 12.7 12.9 13.0 15.0 15.0 15.0 15.0 15.0 15.0 15.0 15.0
15.0 8.3 15.0 15.0 15.0 15.0 15.0 15.0 6.1 7.0 15.0 15.0 15.0 15.0 7.3 4.4 15.0 15.0 15.0 15.0 0.1 0.1 15.0 15.0 15.0 15.0 15.0 14.9 15.0 15.0 15.0 15.0 15.0 15.0 15.0 15.0 15.0 15.0
15.0 14.6 14.2 15.0 15.0 15.0 15.0 15.0 15.0 12.0 12.4 15.0 4.9 15.0 4.4 15.0 7.3 15.0 15.0 15.0 15.0 0.1 0.2 15.0 15.0 0.4 0.3 1.9 15.0 15.0 15.0 14.9 15.0 15.0 15.0 15.0 15.0 15.0
15.0 15.0 15.0 15.0 15.0 15.0 15.0 15.0 15.0 14.9 15.0 8.0 15.0 7.3 8.7 5.6 11.9 6.0 11.8 1.3 1.2 0.3 0.1 0.4 0.4 0.2 0.1 0.1 0.4 8.1 7.9 9.6 15.0 15.0 15.0 15.0 15.0 15.0
15.0 15.0 15.0 15.0 15.0 15.0 15.0 13.8 15.0 15.0 14.8 15.0 15.0 11.3 13.7 1.0 13.5 0.0 0.0 0.1 0.0 3.1 0.1 0.1 0.2 0.2 0.3 0.3 0.4 1.5 11.4 14.5 14.4 15.0 15.0 0.4 0.1 0.4
15.0 15.0 15.0 15.0 15.0 15.0 15.0 15.0 15.0 15.0 15.0 15.0 15.0 15.0 9.7 0.0 0.0 0.1 0.1 0.0 0.1 0.1 0.1 0.1 0.1 0.1 0.1 0.1 0.8 14.1 15.0 15.0 15.0 15.0 4.2 0.1 0.1 0.2
15.0 15.0 15.0 15.0 15.0 13.6 7.7 15.0 15.0 15.0 13.1 15.0 15.0 15.0 15.0 15.0 15.0 0.1 0.1 0.0 0.0 0.3 0.1 0.1 0.4 0.1 0.1 0.1 0.2 12.4 15.0 15.0 1.0 0.1 0.1 0.1 0.2 1.9
15.0 15.0 15.0 15.0 15.0 15.0 15.0 0.0 0.0 0.0 0.1 11.9 15.0 15.0 15.0 15.0 15.0 0.1 0.1 0.1 0.0 0.1 3.3 0.1 0.3 0.1 0.1 0.1 0.3 0.1 0.2 0.2 0.1 0.1 0.2 0.9 14.3 11.3
15.0 15.0 15.0 15.0 15.0 15.0 15.0 15.0 1.8 9.1 0.5 0.1 14.8 15.0 15.0 15.0 14.4 13.2 5.3 0.0 0.1 0.1 1.1 0.1 0.2 0.1 0.1 0.1 6.4 4.8 0.3 0.2 0.2 0.3 0.4 0.6 2.8 14.6
15.0 15.0 15.0 15.0 14.2 2.8 15.0 15.0 3.3 0.1 0.0 0.1 1.0 0.7 0.2 12.5 14.2 0.2 0.0 0.0 0.0 0.0 0.1 0.2 0.2 0.1 0.2 0.1 0.2 6.0 11.5 5.1 4.0 4.6 5.2 3.4 5.1 8.6
15.0 15.0 15.0 3.8 1.8 5.7 0.1 0.1 0.6 0.1 0.0 0.0 0.0 0.0 0.0 0.1 0.1 8.6 0.8 0.1 0.0 0.0 0.1 0.4 1.9 8.1 0.2 1.2 0.1 0.1 0.1 0.4 0.2 0.2 0.3 2.7 5.3 1.9
6.8 1.1 14.0 15.0 15.0 0.4 0.1 0.1 0.1 0.0 0.0 0.0 0.0 0.0 0.0 0.0 0.1 0.1 13.6 14.7 0.1 0.0 4.4 14.4 6.3 3.2 15.0 0.1 0.3 0.4 0.3 0.1 0.1 0.1 0.9 3.8 3.8 3.0
0.4 2.1 8.6 15.0 15.0 13.6 4.9 0.2 0.0 0.1 0.0 0.0 0.0 0.0 0.0 0.0 0.0 0.0 0.0 0.0 0.1 0.1 7.7 15.0 15.0 15.0 10.9 1.6 0.6 0.4 0.5 1.5 3.6 0.6 0.8 2.0 3.0 1.7
13.8 14.5 15.0 15.0 15.0 15.0 15.0 15.0 0.1 0.0 0.0 0.0 0.0 0.0 0.0 0.0 0.1 0.1 0.1 0.1 0.1 0.1 6.0 0.7 15.0 15.0 15.0 15.0 0.1 0.3 0.1 0.3 1.3 1.5 0.9 0.9 1.4 0.4
15.0 15.0 15.0 15.0 15.0 15.0 15.0 15.0 15.0 3.3 0.1 0.0 0.0 0.1 0.1 0.1 0.1 0.6 0.2 0.2 1.3 0.2 0.2 0.3 15.0 15.0 15.0 15.0 1.4 0.7 0.8 0.7 0.5 0.6 0.6 0.1 0.1 0.1
15.0 15.0 15.0 15.0 15.0 15.0 15.0 15.0 15.0 15.0 9.9 0.5 15.0 6.7 1.5 0.3 0.4 1.4 3.3 3.8 0.6 0.2 0.1 0.1 7.9 9.5 10.4 1.5 0.8 1.3 0.6 0.7 0.9 0.3 0.1 0.1 0.1 0.1
15.0 11.0 2.8 3.2 1.1 0.9 3.0 10.4 15.0 12.7 3.4 1.7 2.9 3.3 6.3 6.6 0.8 0.7 0.5 0.6 0.2 0.2 0.2 0.1 5.9 6.0 1.9 0.4 2.2 0.6 0.7 0.3 0.1 0.1 0.1 0.1 0.1 0.1
2.1 1.4 1.3 0.8 0.3 0.6 0.5 1.0 0.3 0.2 0.2 0.2 0.2 0.7 1.0 0.4 1.0 0.4 0.4 0.5 0.3 0.3 0.4 0.5 1.1 4.0 1.5 0.8 0.1 0.3 0.1 0.1 0.1 0.1 0.1 0.1 0.1 0.1
2.1 0.4 0.4 0.8 0.9 0.4 0.3 0.2 0.3 0.2 0.1 0.1 0.1 0.1 0.1 0.1 0.2 0.2 0.5 0.5 0.3 0.3 0.3 0.3 0.6 0.8 1.3 0.8 0.2 0.0 0.6 0.1 0.2 0.1 0.1 0.1 0.1 0.1
1.3 0.9 0.4 0.4 0.4 0.8 0.3 0.3 0.1 0.1 0.1 0.1 0.1 0.1 0.1 0.1 0.1 0.1 0.1 0.1 0.1 0.1 0.1 0.1 0.1 0.1 0.1 0.7 0.1 0.1 0.1 0.1 0.1 0.1 0.1 0.2 1.2 3.6
0.8 0.8 0.9 1.3 1.3 0.4 0.3 0.2 0.2 0.1 0.1 0.1 0.1 0.1 0.1 0.1 0.1 0.1 0.1 0.1 0.1 0.1 0.1 0.1 0.1 0.1 0.1 0.5 0.1 0.1 0.1 0.1 0.8 2.2 4.6 3.9 2.5 1.8
0.5 0.9 0.8 2.2 1.7 1.0 0.5 0.2 0.2 0.1 0.1 0.1 0.1 0.1 0.1 0.1 0.1 0.1 0.1 0.1 0.1 0.1 0.1 0.1 0.1 0.1 0.1 0.1 0.1 0.1 0.1 0.2 1.5 1.9 4.6 7.2 13.2 15.0